Stations météo

réclame
Mon MeteoGroup
Eindhoven, Pays-Bas (6370): Température de l'air & dewpoint: 11.01.2018 08:00:00 - 17.01.2018 08:00:00 (CET)Eindhoven, Pays-Bas (6370): Température de l'air 5cm: 11.01.2018 08:00:00 - 17.01.2018 08:00:00 (CET)Eindhoven, Pays-Bas (6370): Vitesse du vent & gusts: 11.01.2018 08:00:00 - 17.01.2018 08:00:00 (CET)Eindhoven, Pays-Bas (6370): Direction du vent: 11.01.2018 08:00:00 - 17.01.2018 08:00:00 (CET)Eindhoven, Pays-Bas (6370): reduced air pressure: 11.01.2018 08:00:00 - 17.01.2018 08:00:00 (CET)Eindhoven, Pays-Bas (6370): visibility: 11.01.2018 08:00:00 - 17.01.2018 08:00:00 (CET)Eindhoven, Pays-Bas (6370): Quantités de précipitations: 11.01.2018 08:00:00 - 17.01.2018 08:00:00 (CET)
Date & Time tt [°C] td [°C] tt 5cm [°C] ff [km/h] ff [knt] fx [km/h] fx [knt] dd ppp [hPa] vv [km] rr [mm]
17.01.2018 08:00:00 2,0 -1,0 1,3 18 10 - - WSW 997,7 10 -
17.01.2018 07:00:00 2,0 -0,3 1,1 15 8 32 18 WSW 996,3 10 0,0
17.01.2018 06:00:00 2,1 0,0 1,5 22 12 40 21 WSW 995,3 10 0,1
17.01.2018 05:00:00 1,4 0,5 1,0 22 12 43 23 WSW 994,4 10 0,4
17.01.2018 04:00:00 2,4 0,7 1,9 18 10 40 21 WSW 993,5 10 1,0
17.01.2018 03:00:00 3,1 0,3 2,6 29 16 43 23 WSW 992,9 10 0,0
17.01.2018 02:00:00 3,1 1,0 2,4 24 13 40 21 W 992,2 10 2,8
17.01.2018 01:00:00 3,6 2,0 3,4 21 11 43 23 SW 992,3 3,2 0,9
17.01.2018 00:00:00 3,7 1,0 3,0 21 11 36 19 SSW 992,4 10 0,0
16.01.2018 23:00:00 3,7 0,4 3,0 24 13 32 18 SW 993,0 10 0,0
16.01.2018 22:00:00 3,4 0,5 2,5 22 12 32 18 SW 993,4 10 0,0
16.01.2018 21:00:00 3,1 0,5 1,9 16 9 29 16 SW 994,0 10 0,0
16.01.2018 20:00:00 2,1 -0,1 1,2 15 8 22 12 SSW 994,3 10 0,0
16.01.2018 19:00:00 2,7 0,3 1,9 18 10 32 18 SW 994,3 10 0,0
16.01.2018 18:00:00 3,6 1,1 3,1 28 15 43 23 WSW 994,8 6 0,2
16.01.2018 17:00:00 3,8 0,1 3,1 22 12 50 27 W 994,8 10 0,0
16.01.2018 16:00:00 4,5 0,9 3,8 24 13 40 21 WSW 994,7 10 0,1
16.01.2018 15:00:00 5,5 0,8 5,0 21 11 40 21 W 994,3 10 0,0
16.01.2018 14:00:00 5,9 1,7 4,7 25 14 54 29 W 994,1 29 0,0
16.01.2018 13:00:00 4,7 1,9 4,3 22 12 36 19 W 994,2 10 0,4
16.01.2018 12:00:00 4,5 2,2 4,4 16 9 43 23 WNW 994,2 10 0,7
16.01.2018 11:00:00 4,6 3,1 4,5 21 11 47 25 W 993,3 10 2,0
16.01.2018 10:00:00 5,3 2,6 5,0 28 15 50 27 W 992,4 10 0,3
16.01.2018 09:00:00 6,8 3,7 6,2 29 16 47 25 WSW 991,4 10 0,0
16.01.2018 08:00:00 6,4 3,8 5,8 28 15 43 23 SW 991,0 10 0,0
16.01.2018 07:00:00 5,8 3,6 5,2 21 11 36 19 WSW 991,2 10 0,0
16.01.2018 06:00:00 6,2 4,0 5,8 24 13 40 21 SW 991,4 10 0,3
16.01.2018 05:00:00 6,4 4,0 6,0 28 15 36 19 SW 991,8 10 0,0
16.01.2018 04:00:00 6,1 4,4 5,8 22 12 32 18 SW 992,4 10 0,0
16.01.2018 03:00:00 6,0 4,4 5,6 22 12 29 16 SW 993,0 10 0,0
16.01.2018 02:00:00 5,9 4,5 5,5 26 14 47 25 WSW 993,6 10 0,2
16.01.2018 01:00:00 6,2 4,4 5,7 26 14 47 25 SW 994,1 6 0,2
16.01.2018 00:00:00 6,6 5,1 6,2 21 11 32 18 WSW 993,4 10 0,0
15.01.2018 23:00:00 7,1 5,3 6,7 21 11 32 18 WSW 992,5 10 0,1
15.01.2018 22:00:00 7,1 5,9 6,9 24 13 50 27 WSW 992,4 8 2,8
15.01.2018 21:00:00 6,8 6,0 6,6 29 16 47 25 SSW 991,8 10 1,0
15.01.2018 20:00:00 6,3 5,1 5,9 29 16 58 31 SSW 991,8 10 0,7
15.01.2018 19:00:00 5,6 4,5 5,3 29 16 65 35 SSW 992,4 5 0,8
15.01.2018 18:00:00 5,6 3,8 5,2 35 19 61 33 S 994,0 10 1,6
15.01.2018 17:00:00 5,9 4,2 5,7 37 20 61 33 SSW 995,8 7 1,3
15.01.2018 16:00:00 6,2 4,5 5,8 34 18 54 29 S 997,3 10 0,6
15.01.2018 15:00:00 5,9 4,8 5,8 28 15 54 29 S 999,2 4,4 0,6
15.01.2018 14:00:00 6,5 4,3 6,3 29 16 54 29 S 1001,4 10 0,9
15.01.2018 13:00:00 6,7 3,8 6,4 31 17 50 27 S 1003,2 10 0,1
15.01.2018 12:00:00 6,3 3,8 6,0 28 15 43 23 S 1005,9 10 0,0
15.01.2018 11:00:00 6,1 3,1 5,8 26 14 47 25 S 1007,4 10 0,0
15.01.2018 10:00:00 5,0 2,8 4,8 21 11 32 18 SSW 1009,1 10 0,0
15.01.2018 09:00:00 4,8 2,6 4,6 24 13 40 21 SSW 1010,2 10 0,0
15.01.2018 08:00:00 4,9 2,9 4,7 21 11 36 19 SSW 1011,1 9 0,0
15.01.2018 07:00:00 4,8 2,4 4,3 15 8 29 16 S 1011,7 10 0,0
15.01.2018 06:00:00 4,5 2,0 4,1 18 10 29 16 S 1012,5 10 0,0
15.01.2018 05:00:00 3,7 1,2 3,1 11 6 18 10 S 1013,7 10 0,0
15.01.2018 04:00:00 2,4 0,5 1,7 11 6 14 8 SSE 1014,4 10 0,0
15.01.2018 03:00:00 1,3 -0,2 0,2 9 5 18 10 S 1015,4 8 0,0
15.01.2018 02:00:00 0,6 -0,9 -0,2 13 7 18 10 S 1016,1 8 0,0
15.01.2018 01:00:00 0,6 -0,9 -0,4 11 6 18 10 SSE 1016,9 7 0,0
15.01.2018 00:00:00 0,9 -0,6 -0,4 9 5 14 8 SSE 1017,8 7 0,0
14.01.2018 23:00:00 0,9 -0,6 0,1 11 6 14 8 SSE 1018,2 7 0,0
14.01.2018 22:00:00 1,4 -0,3 0,6 11 6 18 10 SSE 1018,5 7 0,0
14.01.2018 21:00:00 1,7 -0,1 0,8 13 7 22 12 SE 1018,6 8 0,0
14.01.2018 20:00:00 1,9 -0,2 0,8 9 5 14 8 SE 1018,8 9 0,0
14.01.2018 19:00:00 2,4 -0,1 1,5 9 5 18 10 ESE 1019,1 10 0,0
14.01.2018 18:00:00 3,4 0,3 2,3 9 5 18 10 ESE 1019,3 10 0,0
14.01.2018 17:00:00 4,3 0,6 3,1 9 5 18 10 ESE 1019,3 10 0,0
14.01.2018 16:00:00 5,3 0,9 4,8 11 6 22 12 ESE 1019,4 10 0,0
14.01.2018 15:00:00 5,6 0,8 5,7 16 9 25 14 ESE 1019,2 10 0,0
14.01.2018 14:00:00 5,8 0,9 6,3 13 7 25 14 ESE 1019,5 10 0,0
14.01.2018 13:00:00 5,7 0,9 6,0 16 9 25 14 ESE 1020,0 10 0,0
14.01.2018 12:00:00 4,8 0,4 5,0 21 11 32 18 ESE 1020,5 10 0,0
14.01.2018 11:00:00 4,0 -0,2 4,1 15 8 25 14 ESE 1020,7 10 0,0
14.01.2018 10:00:00 3,2 -0,5 2,7 15 8 25 14 E 1020,7 10 0,0
14.01.2018 09:00:00 2,7 -0,8 1,8 13 7 22 12 E 1020,5 10 0,0
14.01.2018 08:00:00 2,9 -0,6 1,9 13 7 25 14 - 1020,5 10 0,0
14.01.2018 07:00:00 3,2 -0,4 2,3 13 7 22 12 E 1020,5 10 0,0
14.01.2018 06:00:00 3,8 0,0 2,8 13 7 25 14 E 1020,2 10 0,0
14.01.2018 05:00:00 4,5 0,2 3,6 13 7 25 14 E 1020,4 10 0,0
14.01.2018 04:00:00 5,0 0,3 4,6 13 7 25 14 E 1020,6 10 0,0
14.01.2018 03:00:00 5,1 0,3 4,7 11 6 22 12 E 1020,8 10 0,0
14.01.2018 02:00:00 5,0 0,3 4,6 15 8 25 14 ENE 1021,0 10 0,0
14.01.2018 01:00:00 5,1 0,1 4,6 13 7 22 12 E 1021,4 10 0,0
14.01.2018 00:00:00 5,0 0,0 4,5 13 7 22 12 E 1021,7 10 0,0
13.01.2018 23:00:00 4,7 0,0 4,2 15 8 22 12 ENE 1022,0 10 0,0
13.01.2018 22:00:00 4,2 -0,2 3,3 11 6 18 10 E 1022,2 10 0,0
13.01.2018 21:00:00 3,9 -0,2 2,7 9 5 22 12 E 1022,5 10 0,0
13.01.2018 20:00:00 4,0 0,1 2,7 9 5 18 10 E 1022,7 10 0,0
13.01.2018 19:00:00 5,1 1,0 4,7 9 5 22 12 ESE 1022,9 10 0,0
13.01.2018 18:00:00 5,0 0,6 4,0 13 7 22 12 ESE 1023,0 10 0,0
13.01.2018 17:00:00 4,8 0,8 3,5 9 5 29 16 ESE 1023,0 10 0,0
13.01.2018 16:00:00 5,4 1,4 5,0 13 7 25 14 ESE 1023,1 10 0,0
13.01.2018 15:00:00 6,0 1,6 6,0 13 7 25 14 ESE 1023,2 10 0,0
13.01.2018 14:00:00 6,6 2,4 6,6 11 6 25 14 SE 1023,7 10 0,0
13.01.2018 13:00:00 6,9 3,3 7,0 15 8 25 14 - 1024,3 10 0,0
13.01.2018 12:00:00 6,5 3,9 6,8 11 6 22 12 ESE 1024,8 6 0,0
13.01.2018 11:00:00 5,6 4,1 5,4 8 4 18 10 ESE 1025,2 3,3 0,0
13.01.2018 10:00:00 5,1 4,3 5,1 9 5 18 10 E 1025,2 1,7 0,0
13.01.2018 09:00:00 4,9 4,3 4,8 8 4 14 8 ESE 1025,0 1,7 0,0
13.01.2018 08:00:00 4,7 4,1 4,6 9 5 14 8 ESE 1024,9 2,1 0,0
13.01.2018 07:00:00 4,8 3,9 4,7 9 5 14 8 E 1025,2 2,3 0,0
13.01.2018 06:00:00 4,5 4,0 4,5 8 4 14 8 E 1025,2 2,1 0,0
13.01.2018 05:00:00 4,4 3,9 4,3 8 4 14 8 ESE 1025,6 2,1 0,0
13.01.2018 04:00:00 4,2 3,8 4,1 5 3 14 8 E 1026,0 1,9 0,0
13.01.2018 03:00:00 3,8 3,4 3,8 8 4 14 8 ESE 1026,4 0,7 0,0
13.01.2018 02:00:00 4,1 3,8 4,1 9 5 14 8 SE 1026,4 1,1 0,0
13.01.2018 01:00:00 5,0 4,1 4,9 9 5 14 8 ESE 1026,6 2,6 0,0
13.01.2018 00:00:00 5,2 4,3 5,2 5 3 14 8 ESE 1026,8 2,7 0,0
12.01.2018 23:00:00 5,4 4,4 5,3 5 3 11 6 E 1026,9 2,8 0,0
12.01.2018 22:00:00 5,4 4,5 5,3 4 2 7 4 ESE 1027,2 2,9 0,0
12.01.2018 21:00:00 5,5 4,5 5,4 4 2 7 4 E 1027,1 2,9 0,0
12.01.2018 20:00:00 5,5 4,5 5,4 4 2 11 6 - 1026,9 3,0 0,0
12.01.2018 19:00:00 5,6 4,7 5,5 4 2 11 6 - 1026,7 3,2 0,0
12.01.2018 18:00:00 5,6 4,4 5,5 5 3 7 4 E 1026,7 3,3 0,0
12.01.2018 17:00:00 5,6 4,4 5,6 2 1 4 2 - 1026,7 3,5 0,0
12.01.2018 16:00:00 5,7 4,4 5,7 0 0 11 6 N 1026,6 3,8 0,0
12.01.2018 15:00:00 5,5 4,5 5,6 4 2 11 6 - 1026,5 3,3 0,0
12.01.2018 14:00:00 5,5 4,5 5,6 9 5 11 6 NNE 1026,4 3,4 0,0
12.01.2018 13:00:00 5,4 4,6 5,6 4 2 11 6 - 1026,4 3,4 0,0
12.01.2018 12:00:00 5,3 4,5 5,5 8 4 11 6 N 1026,8 3,5 0,0
12.01.2018 11:00:00 5,3 4,7 5,4 8 4 11 6 NNW 1027,1 3,1 0,0
12.01.2018 10:00:00 5,2 4,7 5,2 5 3 11 6 NW 1026,6 2,5 0,0
12.01.2018 09:00:00 5,2 4,8 5,2 4 2 7 4 - 1026,1 2,0 0,0
12.01.2018 08:00:00 5,2 4,8 5,0 4 2 11 6 W 1025,7 2,1 0,0
12.01.2018 07:00:00 5,1 4,7 4,6 2 1 4 2 - 1025,4 2,0 0,0
12.01.2018 06:00:00 5,1 4,7 4,8 4 2 11 6 - 1025,0 2,3 0,0
12.01.2018 05:00:00 5,1 4,8 4,8 2 1 7 4 - 1025,0 2,4 0,0
12.01.2018 04:00:00 5,5 5,0 5,4 5 3 11 6 N 1024,9 2,5 0,0
12.01.2018 03:00:00 5,6 5,1 5,5 8 4 11 6 NNW 1024,7 1,9 0,0
12.01.2018 02:00:00 5,6 5,1 5,5 8 4 11 6 NNW 1024,3 2,2 0,0
12.01.2018 01:00:00 5,4 5,1 5,3 4 2 11 6 - 1024,1 2,3 0,0
12.01.2018 00:00:00 5,4 4,8 5,4 11 6 14 8 N 1023,7 2,4 0,0
11.01.2018 23:00:00 6,0 5,3 6,0 11 6 14 8 N 1023,3 3,7 0,0
11.01.2018 22:00:00 6,5 5,8 6,4 11 6 14 8 N 1022,9 2,8 0,0
11.01.2018 21:00:00 6,7 6,1 6,4 9 5 14 8 N 1022,3 3,0 0,0
11.01.2018 20:00:00 6,9 6,1 6,4 8 4 14 8 N 1021,7 3,4 0,0
11.01.2018 19:00:00 7,0 6,2 6,7 8 4 11 6 N 1021,0 3,8 0,0
11.01.2018 18:00:00 7,4 6,3 7,2 5 3 11 6 N 1020,6 4,8 0,0
11.01.2018 17:00:00 7,5 6,3 7,2 8 4 11 6 N 1019,9 5 0,0
11.01.2018 16:00:00 7,9 6,3 7,8 11 6 14 8 N 1019,1 8 0,0
11.01.2018 15:00:00 8,2 6,3 8,3 9 5 14 8 NNE 1018,3 8 0,0
11.01.2018 14:00:00 8,4 6,1 8,7 5 3 11 6 - 1017,7 10 0,0
11.01.2018 13:00:00 8,1 6,1 8,4 7 4 11 6 N 1017,3 7 0,0
11.01.2018 12:00:00 8,0 6,3 8,2 5 3 11 6 N 1017,0 8 0,0
11.01.2018 11:00:00 6,8 6,1 6,8 4 2 7 4 NNE 1016,8 8 0,0
11.01.2018 10:00:00 5,7 5,4 5,4 0 0 4 2 N 1016,0 4,1 0,0
11.01.2018 09:00:00 4,9 4,5 4,4 2 1 4 2 - 1015,1 3,9 0,0
11.01.2018 08:00:00 4,5 4,1 4,1 2 1 7 4 - 1014,1 1,7 0,0

tt = Température de l'air
td = dewpoint
tt 5cm = Température de l'air 5cm
ff = Vitesse du vent
fx = gusts
dd = Direction du vent
ppp = reduced air pressure
vv = visibility
rr = Quantités de précipitations

stations d'obs. à proximité